Weather History for KBKL - March, 2013

Change the Weather History Date:

Sunday, March 3, 2013

  Actual Average Record
Temperature  
Mean Temperature 24 °F -  
Max Temperature 26 °F 38 °F 66 °F (2008)
Min Temperature 23 °F 26 °F 3 °F (2003)
Degree Days  
Heating Degree Days 40    
Moisture  
Dew Point 19 °F    
Average Humidity 80    
Maximum Humidity 88    
Minimum Humidity 71    
Precipitation  
Precipitation 0.00 in - - ()
Sea Level Pressure  
Sea Level Pressure 30.02 in    
Wind  
Wind Speed 14 mph (NW)    
Max Wind Speed 18 mph    
Max Gust Speed -    
Visibility 8 miles    
Events Snow    
Averages and records for this station are not official NWS values.
T = Trace of Precipitation, MM = Missing Value Source: NWS Daily Summary

Daily Weather History Graph

Daily Weather History Graph

Search for Another Location

Airport or City:

Trip Planner

Search our weather history database for the weather conditions in past years. The results will help you decide how hot, cold, wet, or windy it might be!

Date:

Astronomy

Mar. 03, 2013 Rise Set
Actual Time 6:57 AM EST 6:19 PM EST
Civil Twilight 6:30 AM EST 6:47 PM EST
Nautical Twilight 5:58 AM EST 7:19 PM EST
Astronomical Twilight 5:25 AM EST 7:52 PM EST
Moon 12:01 AM EST (3/3) 10:06 AM EST (3/3)
Length of Visible Light 12h 17m
Length of Day
11h 22m
Waning Gibbous, 64% of the Moon is Illuminated
Mar 3
Waning Gibbous
Mar 4
Last Quarter
Mar 11
New
Mar 19
First Quarter
Mar 27
Full

Hourly Weather History & Observations

Time (EST) Temp. Windchill Dew Point Humidity Pressure Visibility Wind Dir Wind Speed Gust Speed Precip Events Conditions
12:53 AM 25.0 °F 12.6 °F 21.0 °F 85% 30.02 in 10.0 mi NNW 15.0 mph - N/A   Overcast
1:53 AM 25.0 °F 14.2 °F 19.9 °F 81% 30.02 in 10.0 mi NW 11.5 mph - N/A   Overcast
2:53 AM 24.1 °F 10.1 °F 19.9 °F 84% 30.01 in 10.0 mi NW 18.4 mph - N/A   Overcast
3:53 AM 24.1 °F 11.0 °F 19.0 °F 81% 30.00 in 9.0 mi NW 16.1 mph - 0.00 in   Overcast
4:53 AM 24.1 °F 12.5 °F 18.0 °F 77% 30.00 in 9.0 mi NW 12.7 mph - 0.00 in Snow Light Snow
5:53 AM 24.1 °F 11.5 °F 17.1 °F 75% 30.00 in 10.0 mi NW 15.0 mph - 0.00 in   Overcast
6:53 AM 24.1 °F 13.1 °F 17.1 °F 75% 30.01 in 10.0 mi NW 11.5 mph - N/A   Overcast
7:53 AM 24.1 °F 12.5 °F 19.0 °F 81% 30.02 in 7.0 mi NW 12.7 mph - 0.00 in Snow Light Snow
8:20 AM 24.8 °F 14.0 °F 19.4 °F 80% 29.99 in 4.0 mi WNW 11.5 mph - 0.00 in Snow Light Snow
8:53 AM 25.0 °F 13.1 °F 19.9 °F 81% 30.01 in 6.0 mi NW 13.8 mph - 0.00 in   Haze
9:53 AM 25.0 °F 13.1 °F 21.0 °F 85% 30.01 in 6.0 mi WNW 13.8 mph - 0.00 in Snow Light Snow
10:17 AM 24.8 °F 13.4 °F 21.2 °F 86% 29.99 in 2.0 mi NW 12.7 mph - 0.00 in Snow Light Snow
10:41 AM 24.8 °F 13.4 °F 21.2 °F 86% 29.99 in 2.0 mi NW 12.7 mph - 0.00 in Snow Light Snow
10:53 AM 25.0 °F 14.2 °F 21.9 °F 88% 30.02 in 2.0 mi NW 11.5 mph - 0.00 in Snow Light Snow
11:21 AM 24.8 °F 12.9 °F 21.2 °F 86% 29.99 in 3.0 mi NW 13.8 mph - 0.00 in Snow Light Snow
11:35 AM 26.6 °F 16.2 °F 21.2 °F 80% 29.99 in 5.0 mi WNW 11.5 mph - 0.00 in Snow Light Snow
11:53 AM 26.1 °F 15.0 °F 21.9 °F 84% 30.02 in 4.0 mi NW 12.7 mph - 0.00 in Snow Light Snow
12:53 PM 26.1 °F 14.0 °F 19.9 °F 78% 30.01 in 4.0 mi WNW 15.0 mph - 0.00 in Snow Light Snow
1:53 PM 25.0 °F 13.1 °F 19.9 °F 81% 30.01 in 4.0 mi WNW 13.8 mph - 0.00 in Snow Light Snow
2:53 PM 25.0 °F 13.1 °F 19.9 °F 81% 30.00 in 6.0 mi WNW 13.8 mph - 0.00 in Snow Light Snow
3:53 PM 26.1 °F 14.5 °F 19.0 °F 75% 30.00 in 9.0 mi West 13.8 mph - 0.00 in Snow Light Snow
4:01 PM 26.6 °F 14.3 °F 19.4 °F 74% 29.98 in 9.0 mi West 16.1 mph - 0.00 in   Overcast
4:08 PM 26.6 °F 13.8 °F 19.4 °F 74% 29.98 in 10.0 mi West 17.3 mph - 0.00 in   Overcast
4:53 PM 25.0 °F 13.6 °F 18.0 °F 75% 30.01 in 10.0 mi West 12.7 mph - 0.00 in   Mostly Cloudy
5:53 PM 26.1 °F 13.6 °F 18.0 °F 71% 30.02 in 10.0 mi West 16.1 mph - N/A   Overcast
6:53 PM 25.0 °F 14.2 °F 18.0 °F 75% 30.03 in 10.0 mi West 11.5 mph - N/A   Overcast
7:53 PM 25.0 °F 13.6 °F 18.0 °F 75% 30.04 in 10.0 mi West 12.7 mph - N/A   Overcast
8:43 PM 24.8 °F 14.6 °F 19.4 °F 80% 30.03 in 10.0 mi North 10.4 mph - 0.00 in   Overcast
8:53 PM 25.0 °F 15.5 °F 19.9 °F 81% 30.06 in 10.0 mi North 9.2 mph - 0.00 in   Overcast
9:17 PM 24.8 °F 13.4 °F 19.4 °F 80% 30.03 in 9.0 mi NNW 12.7 mph - 0.00 in Snow Light Snow
9:29 PM 24.8 °F 12.9 °F 19.4 °F 80% 30.03 in 9.0 mi NNW 13.8 mph - 0.00 in Snow Light Snow
9:53 PM 24.1 °F 13.1 °F 19.0 °F 81% 30.06 in 9.0 mi NW 11.5 mph - 0.00 in Snow Light Snow
10:03 PM 24.8 °F 14.0 °F 19.4 °F 80% 30.03 in 8.0 mi NW 11.5 mph - 0.00 in Snow Light Snow
10:53 PM 23.0 °F 11.1 °F 17.1 °F 78% 30.06 in 10.0 mi NNW 12.7 mph - 0.00 in   Overcast
11:53 PM 24.1 °F 14.4 °F 17.1 °F 75% 30.06 in 10.0 mi North 9.2 mph - N/A   Overcast